Location: Unspecified
(0.0000°N, 0.0000°E)
Time: 04:07:46
(UTC+00:00)

ESSA 4 - Pass Details

Date: 11 November 2024
Orbit: 1326 x 1439 km, 102.1° (Epoch: 03 December)

Event Time Altitude Azimuth Distance (km) Brightness Sun altitude
Rises 02:42:53 0° 128° (SE) 4,330 12.6 -42.7°
Reaches altitude 10° 02:46:53 10° 108° (ESE) 3,357 11.9 -41.7°
Maximum altitude 02:51:17 16° 72° (ENE) 2,897 11.3 -40.7°
Drops below altitude 10° 02:55:42 10° 37° (NE) 3,370 11.4 -39.7°
Sets 02:59:41 0° 18° (NNE) 4,355 11.8 -38.8°
